Погода в Магнитогорске

Хотите узнать прогноз погоды в Магнитогорске? Тогда Вам сюда: Погода в Магнитогорске

Поиск расширенной информации на нашем сайте:

Полезная информация:

Новости сайта



02.01.2020
Опубликован Долгосрочный прогноз погоды по городам России и ближнего зарубежья на январь 2020 года.
Карты: Прогноз на январь и февраль 2020 года, Сравнение прогнозируемой аномалии приземной температуры воздуха на январь 2020 года по разным моделям.




Погода в Магнитогорске - сегодня

Время (UTC), дата Ветер
(°,м/с) 
Видим.   Явления Облачность Т
(°С)
Тd
(°С)
f(%) Тe
(°С)
Pmin
(гПа)
dP
(гПа)
Po
(мм)
O2
(г/м3)
Тmin Tmax R s Состояние
почвы
00 16.01.22 190 (Ю) 5{12}  10 км  позёмок  3/0 средняя 
[Ac trans]
-4.6 -7.3 81 -8  988.3  1.2  706  290           
03 16.01.22 180 (Ю) 10 км  позёмок  6/0 средняя 
[Ac trans]
-4.9 -6.6 88 -9  988  -0.3  706  290  -12    0.3  35  равномерный
сухой снег
100% 
06 16.01.22 230 (ЮЗ) 20000 м    9/9 600 м 
[Sc]
-5.9 -10.2 72 -10  988.2  706  292           
09 16.01.22 200 (Ю) 20000 м    8/0 средняя 
[Ac trans]
-6.5 -11.4 68 -9  988.2  -0.2  706  292           
12 16.01.22 260 (З) 5{11}  20000 м    8/0 средняя 
[Ac trans]
-11 -17.1 61 -16  991.4  2.2  707  298           
15 16.01.22 240 (ЮЗ) 4{12}  10 км    ясно 
-14.4 -19.4 66 -19  996.6  4.4  711  304    -4.9       
18 16.01.22 240 (ЮЗ) 10 км    3/0 верхняя 
[Ci fib]
-15.4 -19.7 70 -20  999  2.1  712  306           
21 16.01.22 240 (ЮЗ) 6{10}  10 км    9/0 верхняя 
[Cs]
-13.1 -17.8 68 -19  1001.1  2.4  714  304           
00 17.01.22 250 (З) 6{12}  10 км    10/0 средняя 
[As trans]
-11.6 -16.6 66 -17  1002.9  716  302           
03 17.01.22 260 (З) 6-10{12}  10 км    8/0 средняя 
[Ac trans]
-10.3 -14.5 71 -16  1005.4  2.5  718  302  -16.7      34  равномерный
мокрый или
старый снег
100% 
06 17.01.22 240 (ЮЗ) 4{10}  20000 м    9/9 1000 м 
[Sc]
-9.5 -13.3 74 -13  1008.6  3.2  720  302           
09 17.01.22 230 (ЮЗ) 20000 м    9/9 600 м 
[Sc]
-8.3 -13.7 65 -13  1010.1  1.5  721  301           
12 17.01.22 250 (З) 4{10}  4000 м  слаб. снег  10/10 600 м 
[Sc]
-8.4 -13.9 64 -12  1011.8  1.6  722  301           
15 17.01.22 220 (ЮЗ) 10 км  {снег}  4/4 600 м 
[Sc]
-12.2 -15.7 75 -17  1013.8  1.2  723  306    -7.8  0.0     
18 17.01.22 200 (Ю) 10 км  {снег}  4/4 600 м 
[Sc]
-13.9 -16 84 -19  1015.2  0.9  724  309           
21 17.01.22 200 (Ю) 10 км    6/6 600 м 
[Sc]
-11.4 -14.2 80 -15  1016.1  1.4  725  306           
00 18.01.22 210 (ЮЗ) 10 км    10/0 средняя 
[Ac As]
-9.8 -13.2 76 -14  1016.9  726  304           
03 18.01.22 190 (Ю) 10 км    10/0 средняя 
[Ac As]
-10.1 -12.9 80 -13  1018.1  1.1  727  305  -14.7      33  равномерный
мокрый или
старый снег
100% 
06 18.01.22 210 (ЮЗ) 20000 м    6/0 средняя 
[Ac trans]
-10.5 -14.2 74 -12  1019.3  1.1  727  306           
09 18.01.22 190 (Ю) 20000 м    4/0 средняя 
[Ac trans]
-8.2 -12 74 -13  1019.6  0.7  728  303           
12 18.01.22 200 (Ю) 20000 м    6/0 верхняя 
[Ci fib]
-9.7 -11.9 84 -14  1020.9  0.9  729  305           
15 18.01.22 220 (ЮЗ) 10 км    8/0 верхняя 
[Ci fib]
-11 -13.2 84 -11  1021.9  0.7  729  307    -7       
18 18.01.22 130 (ЮВ) 10 км    4/0 средняя 
[As trans]
-12.9 -14.9 85 -13  1022.8  0.5  730  310           
21 18.01.22 160 (Ю) 10 км    6/0 средняя 
[As trans]
-13.4 -15.2 86 -13  1023.7  0.8  730  311           
00 19.01.22 230 (ЮЗ) 10 км    4/0 верхняя 
[Ci fib]
-14.7 -16.7 85 -18  1024.4  0.4  731  312           
Время (UTC), дата Ветер
(°,м/с) 
Видим.   Явления Облачность Т
(°С)
Тd
(°С)
f(%) Тe
(°С)
Pmin
(гПа)
dP
(гПа)
Po
(мм)
O2
(г/м3)
Тmin Tmax R s Состояние
почвы

Для получения пояснительной информации подведите курсор к названию столбца.

ПОГОДА в Магнитогорске - архив

Всё, что Вы хотите узнать о погоде в Магнитогорске - удобно и подробно!

Выберите нужную дату (начиная с 1 января 2019* года) и нажмите кнопку "Найти".
Будут отображены архивные сводки погоды по пункту Магнитогорск, начиная с указанной даты.


Отображать данные в формате CSV (для использования в таблицах Excel)


Внимание! Наш архив погоды предназначен исключительно для личного некоммерческого использования в познавательных целях. Если Вам необходимы официальные справки о состоянии погоды (для производственных, юридических, коммерческих и т.п. целей), обращайтесь в органы Росгидромета.

*Примечание: данная дата относится к архиву по метеостанциям СССР (Россия, СНГ, Балтия).
Архив по метеостанциям Зарубежной Европы и Азии (кроме Китая) хранится 10 дней, по другим регионам земного шара (Китай, Африка, Америка, Австралия, Океания) - 1 день.

Магнитогорск - район местоположения метеостанции


Название, широта, долгота, высота метеостанции:
Магнитогорск 53.3°ш. 59.1°д. 384 м над ур. моря [Российская Федерация]

Дополнительная информация

В oтличие oт бoльшинства пoгoдных сайтoв мы публикуем пoдрoбную метеoинфoрмацию в детальнoм прoфессиoнальнoм фoрмате.

Характеристики температуры и влажнoсти вoздуха измеряются на высoте 2 м в тени вдали oт зданий и деревьев.
Скoрoсть ветра измеряется на высoте 10 м (на урoвне рoста челoвека скoрoсть ветра ниже в 1.5-2 раза). Если метеoстанция нахoдится в гoрoде или в лесу, тo скoрoсть ветра занижена на 2-4 м/с пo сравнению с oткрытым местoм. Скoрoсть ветра над акватoриями крупных рек и oзёр, а также на вершинах хoлмoв на 2-5 м/с выше, чем в oбычных услoвиях.
Атмoсфернoе давление в разных тoчках местнoсти мoжет значительнo oтличаться oт давления на метеoстанции, в зависимoсти oт услoвий рельефа (при пoдъёме на 10 м давление пoнижается примернo на 1 мм рт.ст.).